Location: Easter Hill Village
(37.9235°N, 122.3444°W)
Time: 11:08:20
(UTC+00:00)

Daily predictions for brighter satellites

Satellite Brightness Start Highest point End
(mag) Time Altitude Azimuth Time Altitude Azimuth Time Altitude Azimuth
ISS -2.3 12:05:21 28° SSE 12:05:21 28° SSE 12:07:06 10° SE
Cosmos 1125 Rocket 3.4 12:00:10 10° NNW 12:05:30 81° WSW 12:10:47 10° SSE
CZ-2C R/B 3.9 12:01:10 10° NNE 12:05:40 36° E 12:10:17 10° SSE
Unknown 3.6 12:06:25 61° WNW 12:06:44 63° NW 12:10:51 10° NE
Unknown 3.6 12:08:00 58° WNW 12:08:22 61° NW 12:12:28 10° NE
ADEOS II 3.8 12:06:26 10° NNW 12:08:54 17° NW 12:08:54 17° NW
Unknown 3.7 12:09:36 55° WNW 12:10:02 59° NW 12:14:08 10° NE
Unknown 3.7 12:11:12 52° WNW 12:11:42 57° NW 12:15:47 10° NE
USA 81 4.4 12:07:15 10° S 12:12:28 67° E 12:17:43 10° N
CENTAUR R/B 2.6 12:13:29 35° WSW 12:15:52 57° NW 12:22:35 10° NNE
MSX 4.0 12:10:17 10° NNE 12:16:03 75° ESE 12:21:47 10° S
Cosmos 2344 4.2 12:13:27 28° W 12:16:32 38° NW 12:24:01 10° NNE
Unknown 3.9 12:17:35 43° WNW 12:18:22 50° NW 12:22:24 10° NE
Unknown 4.0 12:19:13 41° WNW 12:20:03 48° NW 12:24:05 10° NE
Unknown 4.1 12:20:47 39° WNW 12:21:42 47° NW 12:25:43 10° NE
Cosmos 2026 Rocket 3.9 12:16:15 10° S 12:22:29 79° W 12:28:50 10° N
Cosmos 783 Rocket 4.4 12:19:21 20° SSW 12:22:57 82° WNW 12:28:11 10° NNE
Unknown 4.1 12:22:24 37° WNW 12:23:23 45° NW 12:27:23 10° NE
Unknown 4.1 12:23:58 36° WNW 12:25:01 44° NW 12:29:00 10° NE
Unknown 4.2 12:27:09 33° WNW 12:28:20 42° NW 12:32:18 10° NE
Cosmos 1707 Rocket 4.3 12:29:27 30° W 12:29:55 31° WNW 12:33:52 10° NNW
Starlink (trailer) 4.3 12:28:45 31° WNW 12:30:01 40° NW 12:33:57 10° NE
Unknown 4.3 12:30:21 30° WNW 12:31:41 39° NW 12:35:36 10° NE
Cosmos 1943 Rocket 3.2 12:30:43 24° W 12:32:11 27° WNW 12:36:50 10° N
H-2A R/B 2.4 12:28:29 10° N 12:32:12 49° WNW 12:33:52 28° SW
Unknown 4.4 12:31:58 29° WNW 12:33:23 38° NW 12:37:17 10° NE
Cosmos 1340 4.5 12:30:30 10° N 12:33:59 34° ENE 12:37:27 10° SE
Cosmos 773 Rocket 4.3 12:29:32 10° S 12:34:41 67° ESE 12:39:49 10° NNE
SL-4 R/B 4.1 12:38:12 10° NNW 12:40:50 19° NNE 12:43:34 10° ENE
COSMOS 2441 4.4 12:40:03 10° N 12:44:52 63° WNW 12:49:41 10° SSW
Cosmos 1733 Rocket 3.1 12:41:11 10° NNW 12:45:34 56° W 12:49:55 10° S
Cosmos 1315 Rocket 2.8 12:41:46 10° S 12:45:52 88° WNW 12:50:02 10° N
Meteor 1-5 Rocket 4.1 12:41:10 10° NNW 12:46:37 79° W 12:52:12 10° S
S3M 4.5 12:41:35 10° N 12:47:42 65° E 12:53:53 10° SSE
H-2A R/B 3.3 12:50:30 10° SSW 12:51:23 11° S 12:52:30 10° SSE
DELTA 2 R/B(2) 3.8 12:53:32 28° SSW 12:54:04 38° SSE 12:56:04 10° E
GPS 2-04 Rocket1 4.0 12:54:37 17° WSW 12:56:31 24° SSW 12:59:48 10° SSE
Aureole 2 Rocket 1.6 12:54:22 10° SSW 12:57:07 77° WNW 12:59:48 10° NNE
Iridium 4 Rocket 4.2 12:54:02 11° SW 12:57:40 26° W 13:01:23 10° NNW
Cosmos 1538 Rocket 4.0 12:53:12 10° SSW 12:58:24 87° ESE 13:03:36 10° NNE
Cosmos 44 4.0 12:57:26 15° WSW 13:01:09 36° NW 13:05:39 10° NNE
USA 215 3.7 12:55:55 10° NE 13:02:07 48° NW 13:08:05 11° WSW
Cosmos 1500 3.1 12:59:54 10° NNW 13:03:36 58° W 13:07:16 10° S
Atlas Centaur 2 3.5 12:58:34 14° WSW 13:04:38 46° S 13:12:35 10° ESE
BREEZE-M DEB (TANK) 4.3 13:03:22 10° SSW 13:07:38 27° SSE 13:09:53 10° E
Cosmos 1400 Rocket 4.4 13:06:07 14° WSW 13:07:46 17° WNW 13:10:21 10° NNW
Lacrosse 5 rocket 1.4 13:04:05 10° NW 13:08:23 77° SW 13:12:53 10° SE
Meteor 1-27 Rocket 4.1 13:05:45 10° SSW 13:11:27 49° WNW 13:17:06 10° N
Cosmos 1812 3.6 13:11:01 10° SW 13:14:24 29° WNW 13:17:48 10° NNW
Cosmos 2242 Rocket 4.2 13:11:05 10° SW 13:15:17 37° WNW 13:19:30 10° N
Cosmos 1782 Rocket 4.2 13:10:59 10° N 13:15:18 61° E 13:19:38 10° SSE
Hubble Space Telescope 2.5 13:12:06 10° SW 13:15:18 22° S 13:18:29 10° SE
CZ-4B DEB 4.4 13:14:06 10° NNE 13:19:40 79° ESE 13:25:10 10° S
Cosmos 2369 Rocket 4.0 13:17:19 10° W 13:20:04 14° NW 13:22:50 10° NNW
COSMOS 2487 3.8 13:18:05 10° NW 13:20:39 20° W 13:23:13 10° SSW
PSLV R/B 3.9 13:17:48 10° N 13:21:48 59° WNW 13:25:40 10° SSW
ATLAS 3B R/B 3.9 13:17:37 10° W 13:22:46 23° NW 13:27:54 10° N
Cosmos 1703 Rocket 3.7 13:20:10 10° SSW 13:24:32 56° W 13:28:55 10° N
Meteor 1-11 Rocket 4.2 13:21:24 10° NNW 13:26:32 38° W 13:31:35 10° SSW
CZ-4B R/B 3.9 13:24:10 10° N 13:28:11 32° WNW 13:32:11 10° SW
Cosmos 2266 Rocket 3.9 13:22:37 10° SSW 13:28:45 74° W 13:34:48 10° N
Cosmos 1536 3.3 13:27:02 10° NNW 13:30:42 36° W 13:34:21 10° SSW
